sat.trackr.live / text

‹ back to catalog

STARLINK-2494

NORAD 48487 · 2021-040BM

PAYLOAD ACTIVE UNKNOWN

§ Identity

Operator
Country
US
Launch date
2021-05-09
Launch site
AFETR
Launch vehicle
Mass (kg)
RCS (m²)

Purposes: comms

External: N2YO · Heavens-Above · Gunter

§ Orbital elements

Epoch: 2026-09-12T16:51:41.482944Z

Period
94.01 min
Inclination
53.1606°
Eccentricity
0.0001240
Mean motion
15.31699760 rev/d
Perigee alt
469.9 km
Apogee alt
471.6 km
Semi-major
6,848.9 km
B*
3.0315e-5
RAAN
43.7272°
Arg perigee
81.4560°
Mean anomaly
278.6582°
Rev number
29,512

§ Raw data

STARLINK-24941 48487U 21040BM  26255.70256346  .00000576  00000+0  30315-4 0  99942 48487  53.1606  43.7272 0001240  81.4560 278.6582 15.31699760295124

JSON: /api/v1/satellites/48487 · /tle

For live sub-satellite position, see the globe view (requires WebGL).

§ Visibility from observer

Set your observer location to see the next 7 days of passes ≥ 10°. The values pass through the URL so the page stays shareable.

No JS? Fill the form by hand. The geolocation button needs JavaScript.